Location: Kuppenheim
(48.8299°N, 8.2568°E)
Time: 13:47:59
(UTC+00:00)

Cosmos 2221 - Pass Details

Date: 20 June 2021
Orbit: 592 x 616 km, 82.5° (Epoch: 04 August)

Event Time Altitude Azimuth Distance (km) Brightness Sun altitude
Rises 01:57:25 0° 334° (NNW) 2,863 6.4 -10.5°
Reaches altitude 10° 02:00:27 10° 311° (NW) 1,948 5.2 -10.2°
Maximum altitude 02:02:54 15° 277° (W) 1,631 4.4 -9.9°
Enters shadow 02:05:15 10° 242° (WSW) 1,913 4.5 -9.7°
